Ponca City Regional Airport
KPNC : now visible

Airfield :











YOU CAN JOIN US ON...

 
LOGIN :

Register | Disclaimer

   EN    FR    IT 

 









Legend :    VFR   Marginal VFR   IFR   Intensive IFR   Very Intensive IFR
Visi :
Ceiling :
>= 8 km
>= 3000ft
5 to 8 km
1000 to 3000 ft
1500m to 5 km
500 to 1000 ft
800 to 1500m
200 to 500 ft
< 800m
< 200 ft
Symbols :   Thunderstorms  Fog  Heavy snow  Heavy precipitations  Wind > 20 kt






- Airport Elevation : 1008 ft


KPNC - Ponca City Regional

CURRENT METAR :
  • 232253Z AUTO 17008G15KT 10SM CLR 29/16 A2964 RMK AO2 SLP026 T02890161

EXPIRED METARs :
  • 232153Z AUTO 18011G20KT 10SM CLR 29/16 A2964 RMK AO2 SLP025 T02940161
  • 232053Z AUTO 15015G20KT 10SM CLR 30/18 A2965 RMK AO2 SLP029 T03000178 56030

TAF KPNC
Valid from the 24 at 00:00 until the 25 at 00:00 UTC


232325Z 2400/2424 17011KT P6SM SCT250
FM240600 18014G21KT P6SM SCT120 BKN250 WS020/19045KT
FM241400 20015G23KT P6SM FEW120 BKN250
FM241800 26015G23KT P6SM SCT250
KZKC FIR / North America



MET'MAP, your aeronautical weather chart ! - Copyright ORBIFLY December 2007 - Disclaimer

ORBIFLY MET'MAP TEAM :

Programming & Development : Alexandra Zaïnal
Concept & original design : Baudouin d'Aumeries
Assistance for programming : Marc-Olivier Méhu
Technical & hardware support : Manuel Goepfert

Contact : metmap@orbifly.com




SOURCES & CREDITS :

   NOAA       Earth
Advisory